Regional Weather Roundup
Issued by NWS Dallas/Fort Worth, TX

Home | Current Version | Previous Version | Text Only | Print | Product List | Glossary On
Versions: 1 2 3 4 5 6 7 8 9 10 11 12 13 14 15 16 17 18 19 20 21 22 23 24 25 26 27 28 29 30 31 32 33 34 35 36 37 38 39 40 41 42 43 44 45 46 47 48 49 50
000
ASUS44 KFWD 191515
RWRFWD
NORTH TEXAS HOURLY WEATHER ROUNDUP
NATIONAL WEATHER SERVICE FORT WORTH TX
1000 AM CDT TUE JUN 19 2018

NOTE: "FAIR" INDICATES FEW OR NO CLOUDS BELOW 12,000 FEET WITH NO
SIGNIFICANT WEATHER AND/OR OBSTRUCTIONS TO VISIBILITY.

TXZ118-119-191600-
DALLAS/FORT WORTH METROPLEX

CITY           SKY/WX    TMP DP  RH WIND       PRES   REMARKS
DFW AIRPORT    CLOUDY    78  72  81 SE15      29.97F
DALLAS LOVE    CLOUDY    79  72  79 SE16      29.99S
FTW MEACHAM    CLOUDY   N/A N/A N/A SE12      29.97S
DAL-EXECUTIVE  CLOUDY    79  71  76 SE15      29.98F
FTW-ALLIANCE   CLOUDY    80  71  74 SE14      29.98S
FTW-NAS-JRB    CLOUDY    81  68  64 SE15      29.98S
FTW-SPINKS     CLOUDY    81  72  74 SE7       29.99F
ARLINGTON      CLOUDY    78  72  81 E15       29.98F
GRAND PRAIRIE  CLOUDY    77  70  78 E14       30.00S
ADDISON        CLOUDY    77  70  78 E13G20    30.00S
MESQUITE       CLOUDY    79  70  73 E13       30.01S
LANCASTER      CLOUDY    78  71  77 SE9       30.00F
$$

TXZ091>094-102>105-117-120-121-131>134-191600-
NORTH CENTRAL TEXAS

CITY           SKY/WX    TMP DP  RH WIND       PRES   REMARKS
SHRMAN/DENISON PTSUNNY   79  70  74 SE10      30.02F
GAINESVILLE    CLOUDY    77  72  83 SE8       30.02F
BOWIE          CLOUDY    78  70  76 SE5       30.01S
BRIDGEPORT     PTSUNNY   79  68  68 SE9       30.00S
DECATUR        CLOUDY    78  69  75 SE7       30.00S
DENTON         CLOUDY    78  70  76 S13       29.99S
MCKINNEY       CLOUDY    77  71  82 SE12      30.01S
BONHAM         CLOUDY    76  69  79 SE13      30.03S
GREENVILLE     CLOUDY    81  70  69 SE8       30.03S
ROCKWALL       PTSUNNY   79  73  81 SE9       30.01F
TERRELL        CLOUDY    79  69  71 E13       30.02S
WAXAHACHIE     CLOUDY    76  73  91 E8        30.00F
CLEBURNE       PTSUNNY   79  73  83 E12       29.99F
GRANBURY       CLOUDY    78  70  76 E9        29.99S
$$

TXZ083>090-098>101-113>116-127>130-139>142-154-155-191600-
WESTERN NORTH TEXAS

CITY           SKY/WX    TMP DP  RH WIND       PRES   REMARKS
WICHITA FALLS  CLOUDY    79  69  71 SE13      29.99S
WF-KICKAPOO    CLOUDY    78  69  73 SE13G22   30.03R
VERNON         CLOUDY    80  69  69 S9        30.00S
ABILENE        CLOUDY    75  68  78 SE10      29.99S
ABILENE-DYESS  PTSUNNY   77  65  65 SE7       29.99S
GRAHAM         LGT RAIN  75  71  86 SE5       29.98S
BRECKENRIDGE   CLOUDY    80  66  63 S7        29.98F
CISCO          CLOUDY    77  70  78 SE9       30.00S
EASTLAND       CLOUDY    78  67  69 E9        29.98F
RANGER         CLOUDY    77  68  74 S9        29.99F
MINERAL WELLS  FAIR      80  69  69 SE12      29.96F
STEPHENVILLE   CLOUDY    77  68  74 SE8       30.01S
COMANCHE       CLOUDY    78  70  77 MISG      29.98S
BROWNWOOD      CLOUDY    77  68  73 E9        29.97F
COLEMAN        CLOUDY    78  67  69 E9        29.99S
BRADY          CLOUDY    77  68  73 E9        29.97F
$$

TXZ143>147-156>162-174-175-191600-
CENTRAL TEXAS

CITY           SKY/WX    TMP DP  RH WIND       PRES   REMARKS
WACO           CLOUDY    77  73  87 E8        29.96F
WACO-MCGREGOR  CLOUDY    76  74  93 E8        29.96F
HILLSBORO      CLOUDY    78  73  84 E15       29.98S
CORSICANA      CLOUDY    78  70  76 SE13      30.00
MEXIA          CLOUDY    76  70  80 E13G22    29.97F
HEARNE         CLOUDY    78  73  85 E8        29.95S
CAMERON        CLOUDY    76  73  93 E6        29.94S
TEMPLE         LGT RAIN  73  73 100 E8        29.96S FOG
KILLEEN        CLOUDY    73  72  94 E10       29.94S
KILLEEN-SKYLRK LGT RAIN  73  73 100 E12       29.95S FOG
FORT HOOD      CLOUDY    75  73  94 E13       29.92S FOG
GATESVILLE     PTSUNNY   75  73  94 E7        29.97F
HAMILTON       RAIN      75  74  97 E12       29.98S
LAMPASAS       CLOUDY    74  72  93 E12       29.94S
$$

TXZ095>097-106>112-122>126-135>138-148>153-164>167-191600-
EAST TEXAS

CITY           SKY/WX    TMP DP  RH WIND       PRES   REMARKS
PARIS          CLOUDY    75  70  83 SE10      30.05S
SULPHUR SPRNGS CLOUDY    78  69  74 SE7       30.06S
MOUNT PLEASANT FAIR      78  70  75 SE7       30.06S
GILMER         CLOUDY    79  69  73 SE10G18   30.03S
MINEOLA        LGT RAIN  73  70  88 CALM      30.04R FOG
TYLER          CLOUDY    76  72  87 SE15G21   30.02S
LONGVIEW       PTSUNNY   78  72  81 SE10      30.03S
MARSHALL       PTSUNNY   79  67  66 SE8       30.05F
ATHENS         CLOUDY    77  70  78 SE6       30.00S
PALESTINE      CLOUDY    76  71  84 E9G20     30.00F
JACKSONVILLE   CLOUDY    76  72  86 E8        30.04F
HENDERSON      CLOUDY    76  70  81 SE15      30.04F
CENTER         CLOUDY    76  73  92 SE5       30.05S
NACOGDOCHES      N/A     75  72  90 E8        30.02F
LUFKIN         LGT RAIN  74  71  91 E8        30.01R
$$

SUPPLEMENTAL OBSERVATIONS (NWS FORT WORTH AREA)

CITY           SKY/WX    TMP DP  RH WIND       PRES   REMARKS
DENISON DAM      N/A     77  70  78 SE7         N/A
CADDO GRASSLND   N/A     79  70  73 S8          N/A
CEDAR HILL       N/A     81  72  74 SE6G15      N/A
LBJ GRASSLAND    N/A     79  68  69 SE8         N/A
POSSUM KINGDOM   N/A     79  68  69 SE8         N/A
GRANBURY         N/A     79  72  78 SE10        N/A
COMANCHE         N/A     77  68  73 E12         N/A
MCGREGOR         N/A     75  72  88 E9          N/A
TEMPLE           N/A     75  72  88 E7          N/A
LAKE LIMESTONE   N/A     75  70  83 E9G17       N/A
ATHENS           N/A     79  72  78 E12         N/A
PALESTINE        N/A     75  70  83 E7          N/A
$$

SUPPLEMENTAL OBSERVATIONS (NWS NORMAN AREA)

CITY           SKY/WX    TMP DP  RH WIND       PRES   REMARKS
GOODLETT         N/A     82  67  60 SE13      29.98S
ODELL            N/A     78  70  75 S12       30.01S
CROWELL          N/A     82  69  64 S13       30.00F
KNOX CITY        N/A     83  67  59 S10       30.00S
SEYMOUR          N/A     80  67  65 SE8       30.00S
MILLERS CREEK    N/A     79  72  78 S10         N/A
$$

SUPPLEMENTAL OBSERVATIONS (NWS SAN ANGELO AREA)

CITY           SKY/WX    TMP DP  RH WIND       PRES   REMARKS
WEINERT          N/A     79  69  71 SE7       30.00S
HASKELL          N/A     77  66  68 S9        29.99S
THROCKMORTON     N/A     78  69  74 SE10      30.00F
STAMFORD         N/A     79  69  70 S9        30.00S
CLYDE            N/A     76  69  78 E7        30.02S
HAMBY            N/A     81  68  65 SE9         N/A
IVIE RESERVOIR   N/A     77  66  69 E8          N/A
COLORADO BEND    N/A     75  72  88 E9          N/A
$$

SUPPLEMENTAL OBSERVATIONS (NWS SHREVEPORT AREA)

CITY           SKY/WX    TMP DP  RH WIND       PRES   REMARKS
TEXARKANA        N/A     79  72  78 SE2         N/A
LINDEN           N/A     82  68  61 SE7G15      N/A
CADDO LAKE       N/A     82  70  65 SE2         N/A
LUFKIN           N/A     75  70  83 MISG        N/A
N SABINE NF      N/A     77  72  83 MISG        N/A
$$

SUPPLEMENTAL OBSERVATIONS ARE A COLLECTION OF AUTOMATED INSTRUMENTS
THAT ARE MAINTAINED BY A VARIETY OF FEDERAL AND STATE AGENCIES.
CERTAIN ELEMENTS...SUCH AS HUMIDITY VALUES AND SUSTAINED WIND
SPEEDS...MAY BE APPROXIMATED.





USA.gov is the U.S. government's official web portal to all federal, state and local government web resources and services.